Time,TemperatureF,DewpointF,PressureIn,WindDirection,WindDirectionDegrees,WindSpeedMPH,WindSpeedGustMPH,Humidity,HourlyPrecipIn,Conditions,Clouds,dailyrainin,SolarRadiationWatts/m^2,SoftwareType,DateUTC
2013-09-15 00:02:00,73.8,70.4,30.06,South,189,1.0,1.0,89,0.00,,,0.05,0,Wunderground v.1.15,2013-09-15 04:02:00,
2013-09-15 00:05:00,73.7,70.3,30.06,SSE,167,1.0,1.0,89,0.00,,,0.05,0,Wunderground v.1.15,2013-09-15 04:05:00,
2013-09-15 00:09:00,73.6,70.5,30.06,South,169,0.0,3.0,90,0.00,,,0.05,0,Wunderground v.1.15,2013-09-15 04:09:00,
2013-09-15 00:10:00,73.6,70.5,30.06,South,169,2.0,2.0,90,0.00,,,0.05,0,Wunderground v.1.15,2013-09-15 04:10:00,
2013-09-15 00:13:00,73.6,70.5,30.06,South,169,0.0,2.0,90,0.00,,,0.05,0,Wunderground v.1.15,2013-09-15 04:13:00,
2013-09-15 03:41:00,71.2,69.1,30.06,SSE,160,0.0,1.0,93,0.00,,,0.00,0,Wunderground v.1.15,2013-09-15 07:41:00,
2013-09-15 03:46:00,71.1,69.0,30.06,SSE,156,2.0,4.0,93,0.00,,,0.00,0,Wunderground v.1.15,2013-09-15 07:46:00,
2013-09-15 03:51:00,71.0,68.9,30.06,SE,141,2.0,2.0,93,0.00,,,0.00,0,Wunderground v.1.15,2013-09-15 07:51:00,
2013-09-15 03:56:00,71.0,68.9,30.06,ESE,123,3.0,5.0,93,0.00,,,0.00,0,Wunderground v.1.15,2013-09-15 07:56:00,
2013-09-15 04:03:00,71.0,68.9,30.06,SE,146,1.0,2.0,93,0.00,,,0.00,0,Wunderground v.1.15,2013-09-15 08:03:00,
2013-09-15 04:08:00,71.0,68.9,30.06,SSE,159,2.0,4.0,93,0.00,,,0.00,0,Wunderground v.1.15,2013-09-15 08:08:00,
2013-09-15 04:13:00,71.0,68.9,30.07,SSE,166,1.0,5.0,93,0.00,,,0.00,0,Wunderground v.1.15,2013-09-15 08:13:00,
2013-09-15 04:18:00,71.0,68.9,30.06,South,176,2.0,5.0,93,0.00,,,0.00,0,Wunderground v.1.15,2013-09-15 08:18:00,
2013-09-15 04:23:00,71.0,68.9,30.07,South,175,0.0,3.0,93,0.00,,,0.00,0,Wunderground v.1.15,2013-09-15 08:23:00,
2013-09-15 04:28:00,70.9,68.8,30.07,South,175,0.0,3.0,93,0.00,,,0.00,0,Wunderground v.1.15,2013-09-15 08:28:00,
2013-09-15 04:33:00,70.8,68.7,30.07,South,175,0.0,1.0,93,0.00,,,0.00,0,Wunderground v.1.15,2013-09-15 08:33:00,
2013-09-15 04:38:00,70.8,68.7,30.07,South,174,0.0,1.0,93,0.00,,,0.00,0,Wunderground v.1.15,2013-09-15 08:38:00,
2013-09-15 04:44:00,70.7,68.9,30.07,South,174,0.0,1.0,94,0.00,,,0.00,0,Wunderground v.1.15,2013-09-15 08:44:00,
2013-09-15 04:49:00,70.7,68.6,30.07,South,174,1.0,1.0,93,0.00,,,0.00,0,Wunderground v.1.15,2013-09-15 08:49:00,
2013-09-15 04:54:00,70.7,68.9,30.07,South,174,0.0,1.0,94,0.00,,,0.00,0,Wunderground v.1.15,2013-09-15 08:54:00,
2013-09-15 04:59:00,70.6,68.8,30.07,SSE,153,0.0,3.0,94,0.00,,,0.00,0,Wunderground v.1.15,2013-09-15 08:59:00,
2013-09-15 05:04:00,70.6,68.8,30.07,SSE,160,1.0,3.0,94,0.00,,,0.00,0,Wunderground v.1.15,2013-09-15 09:04:00,
2013-09-15 05:09:00,70.5,68.7,30.08,SSE,159,1.0,3.0,94,0.00,,,0.00,0,Wunderground v.1.15,2013-09-15 09:09:00,
2013-09-15 05:14:00,70.5,68.7,30.08,SSE,159,1.0,2.0,94,0.00,,,0.00,0,Wunderground v.1.15,2013-09-15 09:14:00,
2013-09-15 05:19:00,70.5,68.7,30.08,SSE,160,1.0,5.0,94,0.00,,,0.00,0,Wunderground v.1.15,2013-09-15 09:19:00,
2013-09-15 05:24:00,70.5,68.7,30.08,South,173,0.0,4.0,94,0.00,,,0.00,0,Wunderground v.1.15,2013-09-15 09:24:00,
2013-09-15 05:29:00,70.5,68.7,30.08,SSE,155,3.0,4.0,94,0.00,,,0.00,0,Wunderground v.1.15,2013-09-15 09:29:00,
2013-09-15 05:34:00,70.5,68.7,30.08,SSE,154,2.0,3.0,94,0.00,,,0.00,0,Wunderground v.1.15,2013-09-15 09:34:00,
2013-09-15 05:40:00,70.5,68.7,30.08,South,170,0.0,1.0,94,0.00,,,0.00,0,Wunderground v.1.15,2013-09-15 09:40:00,
2013-09-15 05:45:00,70.5,68.7,30.08,SSE,163,1.0,3.0,94,0.00,,,0.00,0,Wunderground v.1.15,2013-09-15 09:45:00,
2013-09-15 05:50:00,70.5,68.7,30.08,SSE,168,0.0,1.0,94,0.00,,,0.00,0,Wunderground v.1.15,2013-09-15 09:50:00,
2013-09-15 05:55:00,70.5,68.4,30.08,SSE,163,1.0,2.0,93,0.00,,,0.00,0,Wunderground v.1.15,2013-09-15 09:55:00,
2013-09-15 06:00:00,70.4,68.3,30.08,SSE,165,0.0,1.0,93,0.00,,,0.00,0,Wunderground v.1.15,2013-09-15 10:00:00,
2013-09-15 06:05:00,70.4,68.6,30.08,SSE,161,0.0,2.0,94,0.00,,,0.00,0,Wunderground v.1.15,2013-09-15 10:05:00,
2013-09-15 06:10:00,70.4,68.6,30.08,South,171,0.0,1.0,94,0.00,,,0.00,0,Wunderground v.1.15,2013-09-15 10:10:00,
2013-09-15 06:15:00,70.4,68.3,30.09,South,171,0.0,2.0,93,0.00,,,0.00,0,Wunderground v.1.15,2013-09-15 10:15:00,
2013-09-15 06:20:00,70.3,68.5,30.09,South,172,0.0,1.0,94,0.00,,,0.00,0,Wunderground v.1.15,2013-09-15 10:20:00,
2013-09-15 06:25:00,70.2,68.4,30.09,SSE,154,2.0,3.0,94,0.00,,,0.00,0,Wunderground v.1.15,2013-09-15 10:25:00,
2013-09-15 06:30:00,70.2,68.4,30.09,SSE,160,1.0,5.0,94,0.00,,,0.00,0,Wunderground v.1.15,2013-09-15 10:30:00,
2013-09-15 06:35:00,70.1,68.3,30.09,South,172,0.0,5.0,94,0.00,,,0.00,0,Wunderground v.1.15,2013-09-15 10:35:00,
2013-09-15 06:40:00,70.1,68.3,30.09,SSE,153,0.0,2.0,94,0.00,,,0.00,0,Wunderground v.1.15,2013-09-15 10:40:00,
2013-09-15 06:45:00,70.0,67.9,30.10,SSE,154,1.0,2.0,93,0.00,,,0.00,0,Wunderground v.1.15,2013-09-15 10:45:00,
2013-09-15 06:50:00,69.9,67.8,30.10,SSE,155,1.0,1.0,93,0.00,,,0.00,0,Wunderground v.1.15,2013-09-15 10:50:00,
2013-09-15 06:55:00,69.9,67.8,30.10,SSE,155,1.0,2.0,93,0.00,,,0.00,0,Wunderground v.1.15,2013-09-15 10:55:00,
2013-09-15 07:02:00,69.8,68.0,30.10,SSE,156,4.0,4.0,94,0.00,,,0.00,0,Wunderground v.1.15,2013-09-15 11:02:00,
2013-09-15 07:07:00,69.8,68.0,30.10,South,174,1.0,5.0,94,0.00,,,0.00,5,Wunderground v.1.15,2013-09-15 11:07:00,
2013-09-15 07:12:00,69.8,68.0,30.11,SSE,159,1.0,2.0,94,0.00,,,0.00,7,Wunderground v.1.15,2013-09-15 11:12:00,
2013-09-15 07:17:00,69.8,68.0,30.11,SSE,165,1.0,3.0,94,0.00,,,0.00,11,Wunderground v.1.15,2013-09-15 11:17:00,
2013-09-15 07:22:00,69.8,68.0,30.11,SSE,155,0.0,1.0,94,0.00,,,0.00,12,Wunderground v.1.15,2013-09-15 11:22:00,
2013-09-15 07:27:00,69.9,68.1,30.11,SSE,161,0.0,4.0,94,0.00,,,0.00,30,Wunderground v.1.15,2013-09-15 11:27:00,
2013-09-15 07:32:00,69.9,68.1,30.11,SSE,148,0.0,2.0,94,0.00,,,0.00,21,Wunderground v.1.15,2013-09-15 11:32:00,
2013-09-15 07:37:00,69.9,68.1,30.12,SSE,165,1.0,4.0,94,0.00,,,0.00,37,Wunderground v.1.15,2013-09-15 11:37:00,
2013-09-15 07:42:00,70.0,68.2,30.12,SE,146,1.0,4.0,94,0.00,,,0.00,35,Wunderground v.1.15,2013-09-15 11:42:00,
2013-09-15 07:47:00,70.1,68.3,30.12,SE,137,0.0,4.0,94,0.00,,,0.00,46,Wunderground v.1.15,2013-09-15 11:47:00,
2013-09-15 07:52:00,70.2,68.4,30.12,SE,134,0.0,4.0,94,0.00,,,0.00,47,Wunderground v.1.15,2013-09-15 11:52:00,
2013-09-15 07:57:00,70.3,68.5,30.13,SE,128,1.0,4.0,94,0.00,,,0.00,39,Wunderground v.1.15,2013-09-15 11:57:00,
2013-09-15 08:03:00,70.4,68.6,30.13,South,172,0.0,1.0,94,0.00,,,0.00,44,Wunderground v.1.15,2013-09-15 12:03:00,
2013-09-15 08:08:00,70.5,68.4,30.13,SSE,164,2.0,4.0,93,0.00,,,0.00,46,Wunderground v.1.15,2013-09-15 12:08:00,
2013-09-15 08:13:00,70.6,68.5,30.13,SE,143,0.0,3.0,93,0.00,,,0.00,47,Wunderground v.1.15,2013-09-15 12:13:00,
2013-09-15 08:18:00,70.7,68.6,30.13,South,171,2.0,6.0,93,0.00,,,0.00,49,Wunderground v.1.15,2013-09-15 12:18:00,
2013-09-15 08:23:00,70.9,68.8,30.13,SSE,163,1.0,5.0,93,0.00,,,0.00,53,Wunderground v.1.15,2013-09-15 12:23:00,
2013-09-15 08:28:00,71.0,68.6,30.13,SSE,162,1.0,5.0,92,0.00,,,0.00,58,Wunderground v.1.15,2013-09-15 12:28:00,
2013-09-15 08:33:00,71.3,68.9,30.13,SSE,155,1.0,4.0,92,0.00,,,0.00,62,Wunderground v.1.15,2013-09-15 12:33:00,
2013-09-15 08:38:00,71.6,69.2,30.13,South,169,1.0,6.0,92,0.00,,,0.00,62,Wunderground v.1.15,2013-09-15 12:38:00,
2013-09-15 08:43:00,71.9,69.4,30.13,South,179,2.0,5.0,92,0.00,,,0.00,63,Wunderground v.1.15,2013-09-15 12:43:00,
2013-09-15 08:48:00,72.2,69.7,30.13,SE,141,4.0,8.0,92,0.00,,,0.00,63,Wunderground v.1.15,2013-09-15 12:48:00,
2013-09-15 08:53:00,72.6,69.8,30.13,South,169,1.0,5.0,91,0.00,,,0.00,65,Wunderground v.1.15,2013-09-15 12:53:00,
2013-09-15 08:58:00,73.1,70.3,30.13,SSE,151,3.0,5.0,91,0.00,,,0.00,63,Wunderground v.1.15,2013-09-15 12:58:00,
2013-09-15 09:03:00,73.7,70.9,30.13,SSE,161,1.0,3.0,91,0.00,,,0.00,65,Wunderground v.1.15,2013-09-15 13:03:00,
2013-09-15 09:08:00,74.1,71.0,30.14,South,169,3.0,4.0,90,0.00,,,0.00,67,Wunderground v.1.15,2013-09-15 13:08:00,
2013-09-15 09:14:00,74.6,71.1,30.14,South,174,3.0,6.0,89,0.00,,,0.00,69,Wunderground v.1.15,2013-09-15 13:14:00,
2013-09-15 09:19:00,75.2,71.7,30.14,SSE,166,0.0,6.0,89,0.00,,,0.00,72,Wunderground v.1.15,2013-09-15 13:19:00,
2013-09-15 09:24:00,75.7,72.2,30.14,South,173,0.0,4.0,89,0.00,,,0.00,72,Wunderground v.1.15,2013-09-15 13:24:00,
2013-09-15 09:29:00,76.3,72.5,30.13,SSE,153,3.0,4.0,88,0.00,,,0.00,76,Wunderground v.1.15,2013-09-15 13:29:00,
2013-09-15 09:34:00,76.9,72.7,30.14,SSE,150,0.0,6.0,87,0.00,,,0.00,98,Wunderground v.1.15,2013-09-15 13:34:00,
2013-09-15 09:39:00,77.4,72.9,30.14,SSE,159,3.0,7.0,86,0.00,,,0.00,139,Wunderground v.1.15,2013-09-15 13:39:00,
2013-09-15 09:44:00,77.9,73.0,30.14,South,171,1.0,6.0,85,0.00,,,0.00,151,Wunderground v.1.15,2013-09-15 13:44:00,
2013-09-15 09:49:00,78.3,73.4,30.14,SE,143,1.0,7.0,85,0.00,,,0.00,213,Wunderground v.1.15,2013-09-15 13:49:00,
2013-09-15 09:54:00,78.7,73.8,30.14,SE,145,1.0,3.0,85,0.00,,,0.00,473,Wunderground v.1.15,2013-09-15 13:54:00,
2013-09-15 09:59:00,79.3,74.4,30.15,ESE,113,1.0,3.0,85,0.00,,,0.00,517,Wunderground v.1.15,2013-09-15 13:59:00,
2013-09-15 10:04:00,79.9,74.6,30.15,SE,136,2.0,5.0,84,0.00,,,0.00,519,Wunderground v.1.15,2013-09-15 14:04:00,
2013-09-15 10:10:00,80.4,74.8,30.15,SSE,157,1.0,2.0,83,0.00,,,0.00,545,Wunderground v.1.15,2013-09-15 14:10:00,
2013-09-15 10:15:00,80.9,74.9,30.15,SSE,154,1.0,6.0,82,0.00,,,0.00,580,Wunderground v.1.15,2013-09-15 14:15:00,
2013-09-15 10:20:00,81.3,75.3,30.15,WSW,246,0.0,2.0,82,0.00,,,0.00,612,Wunderground v.1.15,2013-09-15 14:20:00,
2013-09-15 10:25:00,81.4,75.4,30.15,SSE,148,1.0,7.0,82,0.00,,,0.00,487,Wunderground v.1.15,2013-09-15 14:25:00,
2013-09-15 10:30:00,81.7,75.3,30.15,South,177,2.0,2.0,81,0.00,,,0.00,608,Wunderground v.1.15,2013-09-15 14:30:00,
2013-09-15 10:35:00,82.1,75.7,30.15,SSW,197,0.0,4.0,81,0.00,,,0.00,635,Wunderground v.1.15,2013-09-15 14:35:00,
2013-09-15 10:40:00,82.5,76.1,30.15,South,178,3.0,4.0,81,0.00,,,0.00,647,Wunderground v.1.15,2013-09-15 14:40:00,
2013-09-15 10:45:00,82.3,75.5,30.15,SSE,166,2.0,5.0,80,0.00,,,0.00,251,Wunderground v.1.15,2013-09-15 14:45:00,
2013-09-15 10:50:00,82.0,75.6,30.15,SE,140,3.0,7.0,81,0.00,,,0.00,250,Wunderground v.1.15,2013-09-15 14:50:00,
2013-09-15 10:55:00,82.1,75.7,30.15,SSE,167,1.0,9.0,81,0.00,,,0.00,188,Wunderground v.1.15,2013-09-15 14:55:00,
2013-09-15 11:00:00,82.1,75.3,30.15,SSE,153,5.0,5.0,80,0.00,,,0.00,362,Wunderground v.1.15,2013-09-15 15:00:00,
2013-09-15 11:05:00,82.4,75.6,30.15,SE,141,1.0,5.0,80,0.00,,,0.00,849,Wunderground v.1.15,2013-09-15 15:05:00,
2013-09-15 11:10:00,82.5,74.9,30.15,SSE,163,0.0,3.0,78,0.00,,,0.00,250,Wunderground v.1.15,2013-09-15 15:10:00,
2013-09-15 11:15:00,82.8,75.2,30.15,WSW,245,2.0,5.0,78,0.00,,,0.00,359,Wunderground v.1.15,2013-09-15 15:15:00,
2013-09-15 11:20:00,83.1,75.1,30.16,WNW,298,3.0,3.0,77,0.00,,,0.00,842,Wunderground v.1.15,2013-09-15 15:20:00,
2013-09-15 11:25:00,83.4,75.8,30.16,SSE,166,3.0,7.0,78,0.00,,,0.00,809,Wunderground v.1.15,2013-09-15 15:25:00,
2013-09-15 11:30:00,83.6,75.6,30.16,South,171,1.0,3.0,77,0.00,,,0.00,826,Wunderground v.1.15,2013-09-15 15:30:00,
2013-09-15 11:35:00,84.0,75.6,30.16,SSE,158,4.0,9.0,76,0.00,,,0.00,826,Wunderground v.1.15,2013-09-15 15:35:00,
2013-09-15 11:40:00,83.8,75.4,30.15,South,182,2.0,3.0,76,0.00,,,0.00,870,Wunderground v.1.15,2013-09-15 15:40:00,
2013-09-15 11:45:00,83.7,75.3,30.15,South,186,1.0,9.0,76,0.00,,,0.00,216,Wunderground v.1.15,2013-09-15 15:45:00,
2013-09-15 11:50:00,83.6,75.6,30.15,South,180,1.0,3.0,77,0.00,,,0.00,874,Wunderground v.1.15,2013-09-15 15:50:00,
2013-09-15 11:55:00,84.3,75.9,30.15,SE,146,6.0,12.0,76,0.00,,,0.00,900,Wunderground v.1.15,2013-09-15 15:55:00,
2013-09-15 12:00:00,84.2,76.2,30.15,South,190,0.0,2.0,77,0.00,,,0.00,879,Wunderground v.1.15,2013-09-15 16:00:00,
2013-09-15 12:05:00,84.5,75.7,30.15,SE,135,2.0,3.0,75,0.00,,,0.00,879,Wunderground v.1.15,2013-09-15 16:05:00,
2013-09-15 12:10:00,85.2,75.6,30.15,South,169,2.0,3.0,73,0.00,,,0.00,1025,Wunderground v.1.15,2013-09-15 16:10:00,
2013-09-15 12:15:00,85.3,76.5,30.15,SSE,164,2.0,10.0,75,0.00,,,0.00,944,Wunderground v.1.15,2013-09-15 16:15:00,
2013-09-15 12:20:00,85.0,75.8,30.15,ESE,116,3.0,3.0,74,0.00,,,0.00,241,Wunderground v.1.15,2013-09-15 16:20:00,
2013-09-15 12:26:00,84.3,74.7,30.15,SE,130,1.0,8.0,73,0.00,,,0.00,260,Wunderground v.1.15,2013-09-15 16:26:00,
2013-09-15 12:31:00,84.0,74.4,30.15,ESE,107,1.0,4.0,73,0.00,,,0.00,186,Wunderground v.1.15,2013-09-15 16:31:00,
2013-09-15 12:36:00,83.8,74.2,30.15,ENE,67,1.0,8.0,73,0.00,,,0.00,916,Wunderground v.1.15,2013-09-15 16:36:00,
2013-09-15 12:41:00,83.8,74.6,30.14,SSE,150,4.0,8.0,74,0.00,,,0.00,206,Wunderground v.1.15,2013-09-15 16:41:00,
2013-09-15 12:46:00,84.1,75.3,30.14,SE,126,5.0,8.0,75,0.00,,,0.00,163,Wunderground v.1.15,2013-09-15 16:46:00,
2013-09-15 12:51:00,83.9,74.7,30.14,WNW,303,8.0,8.0,74,0.00,,,0.00,148,Wunderground v.1.15,2013-09-15 16:51:00,
2013-09-15 12:56:00,83.4,74.6,30.14,South,171,2.0,8.0,75,0.00,,,0.00,211,Wunderground v.1.15,2013-09-15 16:56:00,
2013-09-15 13:02:00,83.1,75.1,30.14,East,97,0.0,2.0,77,0.00,,,0.00,292,Wunderground v.1.15,2013-09-15 17:02:00,
2013-09-15 13:07:00,83.6,75.2,30.14,SE,146,6.0,9.0,76,0.00,,,0.00,928,Wunderground v.1.15,2013-09-15 17:07:00,
2013-09-15 13:12:00,84.5,75.7,30.14,WSW,248,1.0,6.0,75,0.00,,,0.00,882,Wunderground v.1.15,2013-09-15 17:12:00,
2013-09-15 13:18:00,85.4,76.2,30.14,SE,136,3.0,6.0,74,0.00,,,0.00,882,Wunderground v.1.15,2013-09-15 17:18:00,
2013-09-15 13:23:00,85.8,74.9,30.14,SSW,209,2.0,7.0,70,0.00,,,0.00,902,Wunderground v.1.15,2013-09-15 17:23:00,
2013-09-15 13:28:00,85.9,75.0,30.14,ESE,123,3.0,7.0,70,0.00,,,0.00,234,Wunderground v.1.15,2013-09-15 17:28:00,
2013-09-15 13:33:00,85.6,75.1,30.14,SE,140,3.0,7.0,71,0.00,,,0.00,833,Wunderground v.1.15,2013-09-15 17:33:00,
2013-09-15 13:38:00,85.4,75.3,30.14,SSW,196,4.0,12.0,72,0.00,,,0.00,937,Wunderground v.1.15,2013-09-15 17:38:00,
2013-09-15 13:43:00,85.2,75.6,30.14,NNE,23,3.0,7.0,73,0.00,,,0.00,967,Wunderground v.1.15,2013-09-15 17:43:00,
2013-09-15 13:48:00,85.4,75.3,30.14,NW,325,3.0,8.0,72,0.00,,,0.00,255,Wunderground v.1.15,2013-09-15 17:48:00,
2013-09-15 13:53:00,85.5,75.9,30.13,WNW,296,0.0,7.0,73,0.00,,,0.00,925,Wunderground v.1.15,2013-09-15 17:53:00,
2013-09-15 13:58:00,86.1,76.0,30.13,NE,44,3.0,7.0,72,0.00,,,0.00,963,Wunderground v.1.15,2013-09-15 17:58:00,
2013-09-15 14:03:00,86.6,76.9,30.13,South,184,1.0,2.0,73,0.00,,,0.00,884,Wunderground v.1.15,2013-09-15 18:03:00,
2013-09-15 14:08:00,87.0,76.0,30.13,SSE,165,2.0,8.0,70,0.00,,,0.00,872,Wunderground v.1.15,2013-09-15 18:08:00,
2013-09-15 14:13:00,86.8,75.4,30.13,South,185,3.0,7.0,69,0.00,,,0.00,902,Wunderground v.1.15,2013-09-15 18:13:00,
2013-09-15 14:18:00,86.2,75.3,30.13,SE,146,4.0,7.0,70,0.00,,,0.00,863,Wunderground v.1.15,2013-09-15 18:18:00,
2013-09-15 14:23:00,86.3,75.8,30.12,SSE,162,2.0,4.0,71,0.00,,,0.00,837,Wunderground v.1.15,2013-09-15 18:23:00,
2013-09-15 14:28:00,86.4,75.5,30.12,WNW,294,3.0,5.0,70,0.00,,,0.00,838,Wunderground v.1.15,2013-09-15 18:28:00,
2013-09-15 14:33:00,86.7,75.3,30.12,South,175,0.0,5.0,69,0.00,,,0.00,828,Wunderground v.1.15,2013-09-15 18:33:00,
2013-09-15 14:38:00,86.7,75.3,30.12,SSW,192,1.0,6.0,69,0.00,,,0.00,816,Wunderground v.1.15,2013-09-15 18:38:00,
2013-09-15 14:43:00,86.5,74.7,30.12,SE,132,5.0,5.0,68,0.00,,,0.00,809,Wunderground v.1.15,2013-09-15 18:43:00,
2013-09-15 14:48:00,86.1,74.7,30.12,ESE,121,3.0,9.0,69,0.00,,,0.00,824,Wunderground v.1.15,2013-09-15 18:48:00,
2013-09-15 14:53:00,85.6,74.7,30.12,SE,146,2.0,9.0,70,0.00,,,0.00,821,Wunderground v.1.15,2013-09-15 18:53:00,
2013-09-15 14:58:00,85.7,75.6,30.12,SE,138,2.0,9.0,72,0.00,,,0.00,763,Wunderground v.1.15,2013-09-15 18:58:00,
2013-09-15 15:03:00,85.9,75.4,30.12,WSW,255,1.0,6.0,71,0.00,,,0.00,830,Wunderground v.1.15,2013-09-15 19:03:00,
2013-09-15 15:08:00,86.1,75.6,30.11,SSE,164,2.0,6.0,71,0.00,,,0.00,828,Wunderground v.1.15,2013-09-15 19:08:00,
2013-09-15 15:13:00,86.2,75.7,30.11,SE,138,1.0,4.0,71,0.00,,,0.00,786,Wunderground v.1.15,2013-09-15 19:13:00,
2013-09-15 15:18:00,86.6,73.9,30.11,NW,312,7.0,7.0,66,0.00,,,0.00,858,Wunderground v.1.15,2013-09-15 19:18:00,
2013-09-15 15:23:00,86.9,75.9,30.11,South,183,0.0,5.0,70,0.00,,,0.00,768,Wunderground v.1.15,2013-09-15 19:23:00,
2013-09-15 15:28:00,86.7,75.7,30.11,SE,133,4.0,7.0,70,0.00,,,0.00,784,Wunderground v.1.15,2013-09-15 19:28:00,
2013-09-15 15:33:00,86.1,75.6,30.11,SE,129,8.0,10.0,71,0.00,,,0.00,197,Wunderground v.1.15,2013-09-15 19:33:00,
2013-09-15 15:38:00,85.0,75.4,30.11,SSE,165,2.0,10.0,73,0.00,,,0.00,213,Wunderground v.1.15,2013-09-15 19:38:00,
2013-09-15 15:44:00,84.4,75.6,30.11,SSE,152,3.0,7.0,75,0.00,,,0.00,200,Wunderground v.1.15,2013-09-15 19:44:00,
2013-09-15 15:49:00,83.6,75.6,30.11,SSW,200,6.0,7.0,77,0.00,,,0.00,178,Wunderground v.1.15,2013-09-15 19:49:00,
2013-09-15 15:54:00,83.4,75.8,30.10,South,188,2.0,5.0,78,0.00,,,0.00,156,Wunderground v.1.15,2013-09-15 19:54:00,
2013-09-15 15:59:00,83.2,75.6,30.10,SSE,153,0.0,6.0,78,0.00,,,0.00,237,Wunderground v.1.15,2013-09-15 19:59:00,
2013-09-15 16:04:00,83.2,76.0,30.10,South,182,2.0,4.0,79,0.00,,,0.00,223,Wunderground v.1.15,2013-09-15 20:04:00,
2013-09-15 16:09:00,83.4,76.2,30.10,SSE,157,1.0,7.0,79,0.00,,,0.00,290,Wunderground v.1.15,2013-09-15 20:09:00,
2013-09-15 16:14:00,83.5,75.9,30.10,SSE,155,0.0,5.0,78,0.00,,,0.00,137,Wunderground v.1.15,2013-09-15 20:14:00,
2013-09-15 16:19:00,83.2,76.0,30.10,SE,142,0.0,5.0,79,0.00,,,0.00,246,Wunderground v.1.15,2013-09-15 20:19:00,
2013-09-15 16:25:00,83.0,75.8,30.10,ESE,121,3.0,11.0,79,0.00,,,0.00,260,Wunderground v.1.15,2013-09-15 20:25:00,
2013-09-15 16:30:00,82.9,76.1,30.10,WNW,283,3.0,4.0,80,0.00,,,0.00,269,Wunderground v.1.15,2013-09-15 20:30:00,
2013-09-15 16:35:00,82.9,76.1,30.10,South,181,1.0,7.0,80,0.00,,,0.00,158,Wunderground v.1.15,2013-09-15 20:35:00,
2013-09-15 16:40:00,82.7,75.9,30.10,SE,134,4.0,4.0,80,0.00,,,0.00,178,Wunderground v.1.15,2013-09-15 20:40:00,
2013-09-15 16:45:00,82.5,76.1,30.10,West,277,2.0,12.0,81,0.00,,,0.00,183,Wunderground v.1.15,2013-09-15 20:45:00,
2013-09-15 16:50:00,82.4,76.0,30.10,SSE,155,1.0,2.0,81,0.00,,,0.00,132,Wunderground v.1.15,2013-09-15 20:50:00,
2013-09-15 16:55:00,82.3,75.9,30.10,SSE,158,2.0,10.0,81,0.00,,,0.00,125,Wunderground v.1.15,2013-09-15 20:55:00,
2013-09-15 17:01:00,82.0,76.0,30.10,SE,146,1.0,2.0,82,0.00,,,0.00,137,Wunderground v.1.15,2013-09-15 21:01:00,
2013-09-15 17:06:00,82.0,76.0,30.10,SW,223,1.0,8.0,82,0.00,,,0.00,141,Wunderground v.1.15,2013-09-15 21:06:00,
2013-09-15 17:12:00,81.9,75.9,30.10,SE,142,2.0,9.0,82,0.00,,,0.00,151,Wunderground v.1.15,2013-09-15 21:12:00,
2013-09-15 17:17:00,81.8,75.8,30.10,South,178,2.0,9.0,82,0.00,,,0.00,151,Wunderground v.1.15,2013-09-15 21:17:00,
2013-09-15 17:22:00,81.9,75.9,30.10,SSE,163,0.0,5.0,82,0.00,,,0.00,139,Wunderground v.1.15,2013-09-15 21:22:00,
2013-09-15 17:27:00,81.9,75.9,30.10,SE,139,2.0,5.0,82,0.00,,,0.00,139,Wunderground v.1.15,2013-09-15 21:27:00,
2013-09-15 17:32:00,82.0,76.3,30.10,West,277,1.0,2.0,83,0.00,,,0.00,181,Wunderground v.1.15,2013-09-15 21:32:00,
2013-09-15 17:37:00,82.2,76.2,30.10,South,181,3.0,9.0,82,0.00,,,0.00,200,Wunderground v.1.15,2013-09-15 21:37:00,
2013-09-15 17:42:00,82.4,76.3,30.10,SSE,153,2.0,5.0,82,0.00,,,0.00,146,Wunderground v.1.15,2013-09-15 21:42:00,
2013-09-15 17:47:00,82.5,76.1,30.10,South,174,5.0,8.0,81,0.00,,,0.00,97,Wunderground v.1.15,2013-09-15 21:47:00,
2013-09-15 17:52:00,82.4,76.3,30.10,South,171,0.0,3.0,82,0.00,,,0.00,81,Wunderground v.1.15,2013-09-15 21:52:00,
2013-09-15 17:57:00,82.3,76.3,30.10,SSE,162,2.0,6.0,82,0.00,,,0.00,77,Wunderground v.1.15,2013-09-15 21:57:00,
2013-09-15 18:02:00,82.2,75.8,30.10,NE,39,3.0,3.0,81,0.00,,,0.00,95,Wunderground v.1.15,2013-09-15 22:02:00,
2013-09-15 18:07:00,82.0,75.6,30.10,SSE,150,0.0,7.0,81,0.00,,,0.00,100,Wunderground v.1.15,2013-09-15 22:07:00,
2013-09-15 18:12:00,81.9,75.9,30.10,West,263,0.0,5.0,82,0.00,,,0.00,153,Wunderground v.1.15,2013-09-15 22:12:00,
2013-09-15 18:18:00,82.0,76.0,30.10,South,186,0.0,5.0,82,0.00,,,0.00,132,Wunderground v.1.15,2013-09-15 22:18:00,
2013-09-15 18:23:00,82.1,75.7,30.10,SSE,150,1.0,5.0,81,0.00,,,0.00,74,Wunderground v.1.15,2013-09-15 22:23:00,
2013-09-15 18:28:00,81.9,75.5,30.10,NNW,331,2.0,5.0,81,0.00,,,0.00,49,Wunderground v.1.15,2013-09-15 22:28:00,
2013-09-15 18:33:00,81.7,75.7,30.10,East,92,0.0,3.0,82,0.00,,,0.00,42,Wunderground v.1.15,2013-09-15 22:33:00,
2013-09-15 18:38:00,81.6,75.6,30.10,SSE,157,2.0,5.0,82,0.00,,,0.00,32,Wunderground v.1.15,2013-09-15 22:38:00,
2013-09-15 18:43:00,81.4,75.4,30.10,SE,134,2.0,2.0,82,0.00,,,0.00,37,Wunderground v.1.15,2013-09-15 22:43:00,
2013-09-15 18:48:00,81.3,75.6,30.10,NE,52,1.0,5.0,83,0.00,,,0.00,49,Wunderground v.1.15,2013-09-15 22:48:00,
2013-09-15 18:53:00,81.3,75.6,30.10,South,175,1.0,3.0,83,0.00,,,0.00,47,Wunderground v.1.15,2013-09-15 22:53:00,
2013-09-15 18:58:00,81.2,75.2,30.11,SE,146,3.0,7.0,82,0.00,,,0.00,42,Wunderground v.1.15,2013-09-15 22:58:00,
2013-09-15 19:03:00,81.2,75.2,30.11,SE,142,0.0,3.0,82,0.00,,,0.00,32,Wunderground v.1.15,2013-09-15 23:03:00,
2013-09-15 19:08:00,81.1,75.4,30.11,SSE,162,0.0,3.0,83,0.00,,,0.00,19,Wunderground v.1.15,2013-09-15 23:08:00,
2013-09-15 19:13:00,81.1,75.4,30.11,SSE,163,3.0,4.0,83,0.00,,,0.00,14,Wunderground v.1.15,2013-09-15 23:13:00,
2013-09-15 19:18:00,80.9,75.2,30.11,SSE,155,3.0,6.0,83,0.00,,,0.00,7,Wunderground v.1.15,2013-09-15 23:18:00,
2013-09-15 19:23:00,80.8,75.2,30.11,North,360,3.0,3.0,83,0.00,,,0.00,5,Wunderground v.1.15,2013-09-15 23:23:00,
2013-09-15 19:28:00,80.6,75.0,30.11,SE,125,0.0,4.0,83,0.00,,,0.00,0,Wunderground v.1.15,2013-09-15 23:28:00,
2013-09-15 19:33:00,80.5,75.2,30.11,WSW,254,0.0,5.0,84,0.00,,,0.00,0,Wunderground v.1.15,2013-09-15 23:33:00,
2013-09-15 19:38:00,80.3,75.0,30.11,SE,126,0.0,5.0,84,0.00,,,0.00,0,Wunderground v.1.15,2013-09-15 23:38:00,
2013-09-15 19:43:00,80.2,74.9,30.11,West,273,2.0,3.0,84,0.00,,,0.00,0,Wunderground v.1.15,2013-09-15 23:43:00,
2013-09-15 19:48:00,80.0,74.7,30.11,ESE,122,4.0,5.0,84,0.00,,,0.00,0,Wunderground v.1.15,2013-09-15 23:48:00,
2013-09-15 19:53:00,80.0,75.1,30.11,SSE,151,0.0,3.0,85,0.00,,,0.00,0,Wunderground v.1.15,2013-09-15 23:53:00,
2013-09-15 19:58:00,80.0,75.1,30.11,SE,126,0.0,3.0,85,0.00,,,0.00,0,Wunderground v.1.15,2013-09-15 23:58:00,
2013-09-15 20:03:00,79.9,75.0,30.11,South,170,2.0,3.0,85,0.00,,,0.00,0,Wunderground v.1.15,2013-09-16 00:03:00,
2013-09-15 20:08:00,79.8,74.9,30.11,ESE,116,0.0,3.0,85,0.00,,,0.00,0,Wunderground v.1.15,2013-09-16 00:08:00,
2013-09-15 20:13:00,79.8,74.9,30.11,SSE,167,0.0,3.0,85,0.00,,,0.00,0,Wunderground v.1.15,2013-09-16 00:13:00,
2013-09-15 20:18:00,79.8,74.9,30.11,East,80,0.0,3.0,85,0.00,,,0.00,0,Wunderground v.1.15,2013-09-16 00:18:00,
2013-09-15 20:23:00,79.7,74.8,30.11,WNW,286,1.0,3.0,85,0.00,,,0.00,0,Wunderground v.1.15,2013-09-16 00:23:00,
2013-09-15 20:28:00,79.7,74.8,30.11,SSE,153,0.0,3.0,85,0.00,,,0.00,0,Wunderground v.1.15,2013-09-16 00:28:00,
2013-09-15 20:33:00,79.7,74.8,30.11,WNW,300,1.0,3.0,85,0.00,,,0.00,0,Wunderground v.1.15,2013-09-16 00:33:00,
2013-09-15 20:38:00,79.7,74.8,30.11,WNW,292,1.0,3.0,85,0.00,,,0.00,0,Wunderground v.1.15,2013-09-16 00:38:00,
2013-09-15 20:43:00,79.6,74.7,30.12,SSW,200,1.0,2.0,85,0.00,,,0.00,0,Wunderground v.1.15,2013-09-16 00:43:00,
2013-09-15 20:48:00,79.6,74.7,30.11,South,173,2.0,2.0,85,0.00,,,0.00,0,Wunderground v.1.15,2013-09-16 00:48:00,
2013-09-15 20:53:00,79.5,74.6,30.11,SSE,154,0.0,1.0,85,0.00,,,0.00,0,Wunderground v.1.15,2013-09-16 00:53:00,
2013-09-15 20:58:00,79.4,74.5,30.12,SE,129,1.0,3.0,85,0.00,,,0.00,0,Wunderground v.1.15,2013-09-16 00:58:00,
2013-09-15 21:03:00,79.3,74.4,30.12,SSE,157,0.0,3.0,85,0.00,,,0.00,0,Wunderground v.1.15,2013-09-16 01:03:00,
2013-09-15 21:08:00,79.3,74.4,30.12,NNW,342,1.0,4.0,85,0.00,,,0.00,0,Wunderground v.1.15,2013-09-16 01:08:00,
2013-09-15 21:13:00,79.3,74.7,30.12,SSE,168,0.0,2.0,86,0.00,,,0.00,0,Wunderground v.1.15,2013-09-16 01:13:00,
2013-09-15 21:18:00,79.4,74.8,30.12,WNW,294,0.0,4.0,86,0.00,,,0.00,0,Wunderground v.1.15,2013-09-16 01:18:00,
2013-09-15 21:23:00,79.4,74.8,30.12,West,279,0.0,4.0,86,0.00,,,0.00,0,Wunderground v.1.15,2013-09-16 01:23:00,
2013-09-15 21:28:00,79.5,74.9,30.12,NNW,329,0.0,4.0,86,0.00,,,0.00,0,Wunderground v.1.15,2013-09-16 01:28:00,
2013-09-15 21:33:00,79.6,75.0,30.12,SE,125,1.0,2.0,86,0.00,,,0.00,0,Wunderground v.1.15,2013-09-16 01:33:00,
2013-09-15 21:38:00,79.6,75.0,30.13,North,355,1.0,3.0,86,0.00,,,0.00,0,Wunderground v.1.15,2013-09-16 01:38:00,
2013-09-15 21:44:00,79.6,74.7,30.13,WNW,294,0.0,4.0,85,0.00,,,0.00,0,Wunderground v.1.15,2013-09-16 01:44:00,
2013-09-15 21:49:00,79.6,74.7,30.13,NW,311,0.0,4.0,85,0.00,,,0.00,0,Wunderground v.1.15,2013-09-16 01:49:00,
2013-09-15 21:54:00,79.5,74.9,30.13,WNW,293,0.0,5.0,86,0.00,,,0.00,0,Wunderground v.1.15,2013-09-16 01:54:00,
2013-09-15 21:59:00,79.5,74.9,30.13,NW,309,0.0,5.0,86,0.00,,,0.00,0,Wunderground v.1.15,2013-09-16 01:59:00,
2013-09-15 22:04:00,79.5,74.9,30.13,WNW,298,0.0,2.0,86,0.00,,,0.00,0,Wunderground v.1.15,2013-09-16 02:04:00,
2013-09-15 22:09:00,79.6,75.0,30.13,WNW,299,0.0,4.0,86,0.00,,,0.00,0,Wunderground v.1.15,2013-09-16 02:09:00,
2013-09-15 22:14:00,79.6,75.0,30.13,NW,307,0.0,5.0,86,0.00,,,0.00,0,Wunderground v.1.15,2013-09-16 02:14:00,
2013-09-15 22:19:00,79.6,75.0,30.13,North,349,0.0,5.0,86,0.00,,,0.00,0,Wunderground v.1.15,2013-09-16 02:19:00,
2013-09-15 22:24:00,79.5,74.9,30.14,West,279,0.0,3.0,86,0.00,,,0.00,0,Wunderground v.1.15,2013-09-16 02:24:00,
2013-09-15 22:29:00,79.4,74.8,30.14,NNW,345,0.0,3.0,86,0.00,,,0.00,0,Wunderground v.1.15,2013-09-16 02:29:00,
2013-09-15 22:34:00,79.4,74.8,30.14,SW,236,0.0,1.0,86,0.00,,,0.00,0,Wunderground v.1.15,2013-09-16 02:34:00,
2013-09-15 22:39:00,79.4,75.2,30.13,WSW,238,0.0,1.0,87,0.00,,,0.00,0,Wunderground v.1.15,2013-09-16 02:39:00,
2013-09-15 22:44:00,79.3,75.1,30.13,WSW,238,0.0,0.0,87,0.00,,,0.00,0,Wunderground v.1.15,2013-09-16 02:44:00,
2013-09-15 22:49:00,79.1,74.9,30.14,WSW,238,1.0,1.0,87,0.00,,,0.00,0,Wunderground v.1.15,2013-09-16 02:49:00,
2013-09-15 22:54:00,79.1,74.9,30.14,West,273,0.0,4.0,87,0.00,,,0.00,0,Wunderground v.1.15,2013-09-16 02:54:00,
2013-09-15 22:59:00,79.1,74.9,30.14,West,273,0.0,4.0,87,0.00,,,0.00,0,Wunderground v.1.15,2013-09-16 02:59:00,
2013-09-15 23:04:00,79.1,74.9,30.13,NE,34,0.0,1.0,87,0.00,,,0.00,0,Wunderground v.1.15,2013-09-16 03:04:00,
2013-09-15 23:09:00,79.1,74.9,30.13,SW,233,0.0,1.0,87,0.00,,,0.00,0,Wunderground v.1.15,2013-09-16 03:09:00,
2013-09-15 23:15:00,79.1,74.9,30.13,East,97,0.0,3.0,87,0.00,,,0.00,0,Wunderground v.1.15,2013-09-16 03:15:00,
2013-09-15 23:20:00,79.1,74.9,30.13,WNW,302,2.0,2.0,87,0.00,,,0.00,0,Wunderground v.1.15,2013-09-16 03:20:00,
2013-09-15 23:25:00,79.1,74.9,30.13,NNE,28,0.0,3.0,87,0.00,,,0.00,0,Wunderground v.1.15,2013-09-16 03:25:00,
2013-09-15 23:30:00,79.2,75.0,30.13,NNW,329,0.0,0.0,87,0.00,,,0.00,0,Wunderground v.1.15,2013-09-16 03:30:00,
2013-09-15 23:35:00,79.2,75.0,30.13,NW,319,0.0,3.0,87,0.00,,,0.00,0,Wunderground v.1.15,2013-09-16 03:35:00,
2013-09-15 23:40:00,79.2,75.0,30.13,ENE,76,2.0,2.0,87,0.00,,,0.00,0,Wunderground v.1.15,2013-09-16 03:40:00,
2013-09-15 23:45:00,79.2,75.0,30.13,NNW,334,0.0,2.0,87,0.00,,,0.00,0,Wunderground v.1.15,2013-09-16 03:45:00,
2013-09-15 23:50:00,79.1,75.2,30.13,WNW,294,2.0,2.0,88,0.00,,,0.00,0,Wunderground v.1.15,2013-09-16 03:50:00,
2013-09-15 23:55:00,79.1,75.2,30.13,West,269,0.0,3.0,88,0.00,,,0.00,0,Wunderground v.1.15,2013-09-16 03:55:00,